Home   Weather   Le Mans   Past weeks

Flag for France Past Weather in Le Mans, Pays de la Loire, France — Yesterday and Last 2 Weeks

Now
50 °F

Clear.


Feels Like: 50 °F
Forecast: 53 / 68 °F
Wind: 1 mph from North

Location: Le Mans Airport

Current Time: Sep 26, 2016 at 2:25:59 AM

Latest Report: Sep 26, 2016 at 2:00 AM


Visibility: 10 mi

Pressure: 30.24 "Hg

Humidity: 82%

Dew Point: 45 °F

Location of Le MansLocation

Past Weather in Le Mans — Graph

°F

Le Mans Temperature Yesterday

Maximum temperature yesterday: 72 °F (at 2:30 PM)
Minimum temperature yesterday: 52 °F (at 10:30 PM)
Average temperature yesterday: 62 °F

High & Low Weather Summary for the Past Weeks

 TemperatureHumidityPressure
High93 °F (Sep 13, 4:30 PM)100% (Sep 12, 4:00 AM)30.30 "Hg (Sep 12, 4:00 AM)
Low48 °F (Sep 24, 5:00 AM)28% (Sep 13, 4:30 PM)29.65 "Hg (Sep 13, 11:00 PM)
Average64 °F74%30.03 "Hg
* Reported Sep 11 1:00 AM — Sep 26 1:00 AM, Le Mans, Weather by CustomWeather, © 2016

Note: Actual official high and low records may vary slightly from our data, if they occured in-between our weather recording intervals... More about our weather records

Advertising

Le Mans Weather History for the Previous 24 Hours

Scroll right to see more
 ConditionsComfort  
Time TempWeatherWind HumidityBarometerVisibility
1:00 AM
Mon, Sep 26
50 °FClear.2 mph82%30.24 "Hg10 mi
12:30 AM52 °FClear.1 mph77%30.24 "Hg10 mi
12:00 AM54 °FClear.No wind77%30.21 "Hg10 mi
11:30 PM
Sun, Sep 25
55 °FClear.3 mph72%30.24 "Hg10 mi
11:00 PM52 °FClear.2 mph82%30.21 "Hg10 mi
10:30 PM52 °FClear.No wind82%30.21 "Hg10 mi
10:00 PM54 °FClear.1 mph72%30.21 "Hg10 mi
9:30 PM55 °FClear.No wind67%30.21 "Hg10 mi
9:00 PM57 °FClear.No wind63%30.21 "Hg10 mi
8:30 PM63 °FClear.No wind49%30.18 "Hg10 mi
8:00 PM64 °FClear.2 mph46%30.18 "Hg10 mi
7:30 PM66 °FPassing clouds.3 mph40%30.18 "HgN/A
7:00 PM68 °FPassing clouds.5 mph38%30.18 "HgN/A
6:30 PM70 °FPassing clouds.3 mph35%30.18 "HgN/A
6:00 PM70 °FPassing clouds.8 mph35%30.15 "HgN/A
5:30 PM72 °FPassing clouds.8 mph33%30.15 "HgN/A
5:00 PM72 °FPassing clouds.9 mph33%30.15 "HgN/A
4:30 PM72 °FPassing clouds.13 mph33%30.15 "HgN/A
4:00 PM72 °FPassing clouds.9 mph41%30.12 "HgN/A
3:30 PM70 °FPassing clouds.9 mph43%30.12 "HgN/A
3:00 PM72 °FPassing clouds.9 mph47%30.12 "HgN/A
2:30 PM72 °FPartly sunny.9 mph44%30.12 "HgN/A
2:00 PM70 °FPassing clouds.12 mph50%30.12 "HgN/A
1:30 PM70 °FPartly sunny.9 mph53%30.12 "HgN/A
1:00 PM66 °FBroken clouds.9 mph68%30.09 "HgN/A
12:30 PM64 °FScattered clouds.12 mph73%30.09 "HgN/A
12:00 PM63 °FPassing clouds.9 mph77%30.09 "HgN/A
11:30 AM61 °FPassing clouds.7 mph88%30.09 "HgN/A
11:00 AM61 °FLight rain. Cloudy.6 mph88%30.07 "HgN/A
10:30 AM63 °FMild.7 mph83%30.07 "HgN/A
10:00 AM61 °FOvercast.6 mph88%30.04 "HgN/A
9:30 AM61 °FLight rain. Overcast.2 mph83%30.04 "HgN/A
9:00 AM61 °FBroken clouds.3 mph77%30.04 "HgN/A
8:30 AM61 °FMostly cloudy.3 mph77%30.01 "HgN/A
8:00 AM59 °FBroken clouds.2 mph82%30.01 "HgN/A
7:30 AM59 °FPassing clouds.5 mph77%29.98 "HgN/A
7:00 AM59 °FPassing clouds.5 mph77%29.98 "HgN/A
6:30 AM57 °FClear.3 mph82%29.95 "Hg10 mi
6:00 AM57 °FClear.3 mph82%29.95 "Hg10 mi
5:30 AM59 °FClear.2 mph72%29.95 "Hg10 mi
5:00 AM61 °FClear.5 mph72%29.95 "Hg10 mi
4:30 AM61 °FPassing clouds.6 mph72%29.95 "HgN/A
4:00 AM59 °FPassing clouds.5 mph77%29.95 "HgN/A
3:30 AM57 °FClear.3 mph77%29.95 "Hg10 mi
3:00 AM57 °FClear.3 mph82%29.95 "Hg10 mi
2:30 AM55 °FClear.No wind82%29.95 "Hg10 mi
2:00 AM57 °FClear.No wind77%29.95 "Hg10 mi
Weather by CustomWeather, © 2016

See weather overviewHow to use our weather pages